Regional Weather Roundup
Issued by NWS

Home | Current Version | Previous Version | Graphics & Text | Print | Product List | Glossary On
Versions: 1 2 3 4 5 6 7 8 9 10 11 12 13 14 15 16 17 18 19 20 21 22 23 24 25 26 27 28 29 30 31 32 33 34 35 36 37 38 39 40 41 42 43 44 45 46 47 48 49 50
000
ASUS45 KBOI 020510
RWRID
WEATHER ROUNDUP FOR IDAHO
NATIONAL WEATHER SERVICE BOISE ID
1100 PM MDT MON SEP 01 2014

NOTE: "FAIR" INDICATES FEW OR NO CLOUDS BELOW 12000 FEET
WITH NO SIGNIFICANT WEATHER AND/OR OBSTRUCTIONS TO VISIBILITY

IDZ012-014-020600-
SOUTHWEST IDAHO


CITY           SKY/WX    TMP DP  RH WIND       PRES   REMARKS
BOISE          CLEAR     63  37  38 SE6       29.98F
CALDWELL       CLEAR     61  39  44 CALM      29.99S
MOUNTAIN HOME  CLEAR     59  36  42 NW2       30.00S
$$

IDZ016-017-020600-
SOUTHCENTRAL IDAHO


CITY           SKY/WX    TMP DP  RH WIND       PRES   REMARKS
BURLEY         CLEAR     53  44  71 S9        30.05S
JEROME         CLEAR     55  39  54 SE5       30.05S
TWIN FALLS     CLEAR     56  41  57 S12       30.06S
$$

IDZ019>023-020600-
SOUTHEAST IDAHO


CITY           SKY/WX    TMP DP  RH WIND       PRES   REMARKS
IDAHO FALLS    CLEAR     58  39  49 S3        30.07S
POCATELLO      CLEAR     56  36  47 CALM      30.07S
REXBURG        CLEAR     59  38  45 S12       30.07S
$$

IDZ006-010-011-018-031-032-020600-
CENTRAL IDAHO MOUNTAINS


CITY           SKY/WX    TMP DP  RH WIND       PRES   REMARKS
MCCALL         CLEAR     50  35  56 CALM      30.07S
HAILEY         CLEAR     52  37  58 CALM      30.10S
STANLEY          N/A     41  31  67 S5        30.16R
SALMON         CLEAR     52  43  71 CALM      29.99R
CHALLIS        CLEAR     56  35  45 VRB5      30.04R
$$

IDZ002-004-006-007-026-020600-
NORTHERN IDAHO


CITY           SKY/WX    TMP DP  RH WIND       PRES   REMARKS
LEWISTON       CLEAR     66  42  41 S6        29.94F
LOWELL           N/A     57  50  77 N5        30.01R
COEUR D`ALENE  CLEAR     61  43  51 S8        29.95S
MULLAN PASS    CLEAR     47  35  63 VRB7      30.08F
$$



USA.gov is the U.S. government's official web portal to all federal, state and local government web resources and services.